Shawbury, United Kingdom

12:38 PM GMT on January 18, 2017 (GMT +0000)
Shawbury Air Base

Weather History for EGOS - October, 2013

Change the Weather History Date:

Saturday, October 19, 2013

  Actual Average Record
Temperature  
Mean Temperature 58 °F -  
Max Temperature 64 °F 50 °F 64 °F (2013)
Min Temperature 51 °F 39 °F 33 °F (2007)
Degree Days  
Heating Degree Days 6    
Growing Degree Days 8 (Base 50)    
Moisture  
Dew Point 54 °F    
Average Humidity 86    
Maximum Humidity 100    
Minimum Humidity 70    
Precipitation  
Precipitation 0.01 in - - ()
Sea Level Pressure  
Sea Level Pressure 29.58 in    
Wind  
Wind Speed 9 mph ()    
Max Wind Speed 16 mph    
Max Gust Speed -    
Visibility 7.4 miles    
Events Rain    
Averages and records for this station are not official NWS values.
T = Trace of Precipitation, MM = Missing Value Source: Averaged Metar Reports

Daily Weather History Graph

Daily Weather History Graph

Search for Another Location

Airport or City:

Trip Planner

Search our weather history database for the weather conditions in past years. The results will help you decide how hot, cold, wet, or windy it might be!

Date:

Astronomy

Oct. 19, 2013 Rise Set
Actual Time 7:43 AM BST 6:06 PM BST
Civil Twilight 7:08 AM BST 6:41 PM BST
Nautical Twilight 6:29 AM BST 7:21 PM BST
Astronomical Twilight 5:49 AM BST 8:00 PM BST
Moon 6:16 PM BST (10/19) 8:12 AM BST (10/19)
Length of Visible Light 11h 32m
Length of Day
10h 22m
Full, 100% of the Moon is Illuminated
Oct 19
Full
Oct 27
Last Quarter
Nov 3
New
Nov 10
First Quarter
Nov 17
Full

Hourly Weather History & Observations

Time (BST) Temp. Dew Point Humidity Pressure Visibility Wind Dir Wind Speed Gust Speed Precip Events Conditions
12:50 AM 55 °F 52 °F 87% 29.68 in 7 mi SE 12.7 mph - - Rain Light Rain
12:50 AM 55.4 °F 51.8 °F 88% 29.65 in 6.2 mi SE 12.7 mph - N/A Rain Light Rain
1:50 AM 55.4 °F 53.6 °F 94% 29.65 in 6.2 mi SE 5.8 mph - N/A   Mostly Cloudy
2:50 AM 55.4 °F 53.6 °F 94% 29.62 in 6.2 mi SE 12.7 mph - N/A   Overcast
3:50 AM 55 °F 53 °F 91% 29.62 in 7 mi ESE 8.1 mph - -   Overcast
3:50 AM 55.4 °F 53.6 °F 94% 29.59 in 6.2 mi ESE 8.1 mph - N/A   Overcast
4:50 AM 55.4 °F 53.6 °F 94% 29.59 in 4.3 mi ESE 6.9 mph - N/A   Overcast
5:50 AM 55.4 °F 53.6 °F 94% 29.56 in - East 6.9 mph - N/A   Overcast
6:50 AM 55.4 °F 55.4 °F 100% 29.56 in 4.3 mi ESE 5.8 mph - N/A   Overcast
7:50 AM 57.2 °F 55.4 °F 94% 29.56 in 4.3 mi SE 10.4 mph - N/A   Overcast
8:50 AM 57.2 °F 55.4 °F 94% 29.56 in 4.3 mi SE 8.1 mph - N/A   Mostly Cloudy
9:50 AM 60 °F 58 °F 89% 29.58 in 8 mi South 11.5 mph - -   Scattered Clouds
9:50 AM 60.8 °F 57.2 °F 88% 29.56 in 6.2 mi South 11.5 mph - N/A   Scattered Clouds
10:50 AM 60.8 °F 57.2 °F 88% 29.56 in 6.2 mi South 10.4 mph - N/A   Unknown
11:50 AM 60.8 °F 57.2 °F 88% 29.56 in 6.2 mi South 9.2 mph - N/A   Scattered Clouds
12:50 PM 62 °F 56 °F 73% 29.57 in 17 mi South 9.2 mph - -   Partly Cloudy
12:50 PM 62.6 °F 55.4 °F 77% 29.56 in 6.2 mi South 9.2 mph - N/A   Scattered Clouds
1:50 PM 62.6 °F 57.2 °F 82% 29.53 in 6.2 mi SSE 12.7 mph - N/A   Partly Cloudy
2:50 PM 62.6 °F 53.6 °F 72% 29.53 in 6.2 mi South 15.0 mph - N/A   Unknown
3:50 PM 62 °F 55 °F 70% 29.53 in 14 mi South 13.8 mph - - Rain Light Rain
3:50 PM 62.6 °F 55.4 °F 77% 29.53 in 6.2 mi South 13.8 mph - N/A Rain Light Rain
4:50 PM 60.8 °F 55.4 °F 82% 29.53 in 6.2 mi South 16.1 mph - N/A Rain Light Rain Showers
5:50 PM 59.0 °F 51.8 °F 77% 29.53 in 6.2 mi SSW 12.7 mph - N/A   Partly Cloudy
6:50 PM 56 °F 52 °F 80% 29.58 in 17 mi South 10.4 mph - -  
6:50 PM 57.2 °F 51.8 °F 82% 29.56 in 6.2 mi South 10.4 mph - N/A   Unknown
7:50 PM 55.4 °F 51.8 °F 88% 29.59 in 6.2 mi SSE 5.8 mph - N/A   Unknown
8:50 PM 53.6 °F 50.0 °F 88% 29.59 in 6.2 mi SE 2.3 mph - N/A   Unknown
9:50 PM 54 °F 50 °F 83% 29.61 in 16 mi South 10.4 mph - -  
9:50 PM 55.4 °F 50.0 °F 82% 29.59 in 6.2 mi South 10.4 mph - N/A   Unknown
10:50 PM 53.6 °F 50.0 °F 88% 29.59 in 6.2 mi SSE 5.8 mph - N/A   Unknown
11:50 PM 51.8 °F 50.0 °F 94% 29.59 in 6.2 mi SE 5.8 mph - N/A   Unknown